Regional Weather Roundup
Issued by NWS

Home | Current Version | Previous Version | Text Only | Print | Product List | Glossary Off
Versions: 1 2 3 4 5 6 7 8 9 10 11 12 13 14 15 16 17 18 19 20 21 22 23 24 25 26 27 28 29 30 31 32 33 34 35 36 37 38 39 40 41 42 43 44 45 46 47 48 49 50

000
ASUS43 KOAX 122002
RWRNE

WEATHER ROUNDUP FOR NEBRASKA
NATIONAL WEATHER SERVICE OMAHA NE
200 PM CST TUE DEC 12 2017

NOTES: SATELLITE DATA IS BEING USED TO AUGMENT CLOUD COVER ABOVE
       12000 FEET.
       "FAIR" INDICATES FEW OR NO CLOUDS BELOW 12,000 FEET WITH NO
       SIGNIFICANT WEATHER AND/OR OBSTRUCTIONS TO VISIBILITY.


NEZ001>004-019>022-054>056-122100-
NEBRASKA PANHANDLE

CITY           SKY/WX    TMP DP  RH WIND       PRES   REMARKS
SCOTTSBLUFF    SUNNY     64  16  15 W16       30.14F
ALLIANCE       SUNNY     64  17  16 NW16      30.10F
CHADRON        SUNNY     60  21  22 W10       30.07F
GORDON         FAIR      57  20  23 W17       30.06F
KIMBALL        SUNNY     65  17  15 NW21G31   30.18F
SIDNEY         SUNNY     66  16  14 NW16      30.15F
$$

NEZ057>060-069>072-079>082-122100-
SOUTHWEST NEBRASKA

CITY           SKY/WX    TMP DP  RH WIND       PRES   REMARKS
NORTH PLATTE   SUNNY     54  22  28 W8        30.12F
IMPERIAL       SUNNY     63  17  17 NW10      30.15F
LEXINGTON      SUNNY     51  18  26 W7        30.13F
MCCOOK         SUNNY     53  22  29 W8        30.15F
OGALLALA       SUNNY     62  17  17 W16       30.12F
$$

NEZ005>010-023>029-035>040-094-122100-
NORTH CENTRAL NEBRASKA

CITY           SKY/WX    TMP DP  RH WIND       PRES   REMARKS
VALENTINE      SUNNY     57  23  26 W15       30.03F
AINSWORTH      SUNNY     54  18  24 W8        30.04F
BROKEN BOW     SUNNY     52  18  26 SW6       30.09F
O`NEILL        SUNNY     48  26  42 W13       30.05F
ORD            SUNNY     49  22  34 W7        30.09F
THEDFORD       SUNNY     57  24  27 W8        30.08F
$$

NEZ041-046>049-061>064-073>077-083>087-122100-
SOUTH CENTRAL NEBRASKA

CITY           SKY/WX    TMP DP  RH WIND       PRES   REMARKS
GRAND ISLAND   SUNNY     49  25  39 W10       30.13F
AURORA         SUNNY     48  25  40 W10       30.12F
HASTINGS       SUNNY     49  21  33 W10G21    30.13F
HEBRON         SUNNY     48  27  44 W12       30.16F
HOLDREGE       SUNNY     48  25  40 W9        30.13F
KEARNEY        SUNNY     50  18  28 W8        30.13F
YORK           SUNNY     46  27  46 W10       30.13F
$$

NEZ011>018-030>034-042>045-122100-
NORTHEAST NEBRASKA

CITY           SKY/WX    TMP DP  RH WIND       PRES   REMARKS
NORFOLK        SUNNY     45  27  49 W13       30.06F
ALBION         SUNNY     48  27  44 W8        30.09F
BLAIR          SUNNY     38  26  61 SW9       30.13F WCI  31
FREMONT          N/A    N/A N/A N/A MISG        N/A
TEKAMAH        SUNNY     40  25  55 SW10      30.13F WCI  33
WAYNE          CLOUDY    44  26  47 SW12      30.07F
$$

NEZ050>053-065>068-078-088>093-122100-
SOUTHEAST NEBRASKA

CITY           SKY/WX    TMP DP  RH WIND       PRES   REMARKS
LINCOLN        SUNNY     47  27  45 W12G18    30.15F
OMAHA EPPLEY   PTSUNNY   38  23  55 S10       30.14F WCI  31
BEATRICE       SUNNY     47  29  50 W13       30.15F
FALLS CITY     PTSUNNY   39  21  48 W8        30.19F WCI  33
NEBRASKA CITY  CLOUDY    39  27  60 SW12      30.17F WCI  32
PLATTSMOUTH    CLOUDY    38  27  62 SW12      30.15F WCI  31
$$

NEZ044-045-051>053-067-122100-
OMAHA AREA

CITY           SKY/WX    TMP DP  RH WIND       PRES   REMARKS
OMAHA EPPLEY   PTSUNNY   38  23  55 S10       30.14F WCI  31
BLAIR          SUNNY     38  26  61 SW9       30.13F WCI  31
FREMONT          N/A    N/A N/A N/A MISG        N/A
MILLARD        CLOUDY    40  27  59 SW5       30.15F
OFFUTT AFB     CLOUDY    39  23  53 SW7       30.14F WCI  34
PLATTSMOUTH    CLOUDY    38  27  62 SW12      30.15F WCI  31
WAHOO          FAIR      43  28  56 S6        30.13F
$$




USA.gov is the U.S. government's official web portal to all federal, state and local government web resources and services.